Погода в Тулусду

Мальдивы     4°22′29″N   73°39′06″E
темп.,
°C
ветер,
м/с
пор.,
м/с
влажн.,
%
обл.,
%
осадки,
мм/ч
давл.,
гПа
погр.,
м
13 июня, вс
вс1323:00+29зюз6773100 0.1 10121010
02:00+28зюз7875100 0.0 1010978
05:00+28зюз7774100 0.2 1010966
08:00+29зюз777399 0.0 10111050
11:00+29зюз7875100 0.2 1011984
14:00+29зюз887199 0.8 10091066
17:00+29з886999 0.8 10101103
20:00+29зюз8870100 0.0 10111141
14 июня, пн
пн1423:00+29зюз7871100 0.0 10121147
02:00+28зюз7874100 0.0 10091013
05:00+28зюз6776100 0.1 1010920
08:00+29зюз6774100 0.2 1011918
11:00+28зюз677687 0.3 1011871
14:00+28з677652 0.9 1009864
17:00+28з777590 1.1 1009959
20:00+28зюз7776100 0.1 1011906
15 июня, вт
вт1523:00+28юз7777100 0.1 1011907
02:00+28зюз7775100 0.1 1009960
05:00+28зюз6774100 0.1 10091027
08:00+28зюз6774100 0.0 1010995
11:00+28юз6673100 0.1 1011987
14:00+29зюз677370 0.0 10091038
17:00+29зюз777440 0.0 1009990
20:00+28юз777448 0.1 1011933
16 июня, ср
ср1623:00+29юз7873100 0.1 10111024
02:00+28юз7877100 0.1 1009946
05:00+28юз6773100 0.1 10101023
08:00+28юз7773100 0.1 1011971
11:00+28юз6772100 0.1 1011911
14:00+29юз6772100 0.0 1009966
17:00+29зюз6671100 0.0 1009992
20:00+29юз5574100 0.0 1011939
17 июня, чт
чт1723:00+29юз5574100 0.1 1011890
02:00+28юз4574100 0.0 1010831
05:00+28ююз5574100 0.1 1010701
08:00+28ююз5673100 0.0 1011789
11:00+28ююз5573100 0.0 1011812
14:00+28юз4473100 0.0 1009761
17:00+28юз3372100 0.0 1009792
20:00+28зюз3472100 0.0 1011687